CW6413 Weather Reports


Display with metric or nautical units.
time (UTC)temp
F
wind
direction
speed
MPH
gust
MPH
rain 1hr
in
rain 24hr
in
rain mn
in
humidity
%
barometer
mb
20260507211306 55 256 3.0 7.0 0.00 0.00 0.00 81 1011.3
20260507210806 55 189 3.0 7.0 0.00 0.00 0.00 81 1011.3
20260507210306 55 199 4.0 7.0 0.00 0.00 0.00 82 1011.3
20260507205806 55 196 5.0 8.0 0.00 0.00 0.00 81 1011.3
20260507205307 55 198 7.0 10.0 0.00 0.00 0.00 81 1011.3
20260507204806 55 189 5.0 8.0 0.00 0.00 0.00 81 1011.3
20260507204307 55 247 3.0 5.0 0.00 0.00 0.00 82 1011.3
20260507203806 55 203 3.0 6.0 0.00 0.00 0.00 82 1011.3
20260507203306 55 205 3.0 6.0 0.00 0.00 0.00 82 1011.4
20260507202806 55 225 3.0 6.0 0.00 0.00 0.00 81 1011.4
20260507202307 55 260 3.0 8.0 0.00 0.00 0.00 82 1011.5
20260507201807 55 254 4.0 8.0 0.00 0.00 0.00 83 1011.5
20260507201306 55 265 5.0 7.0 0.00 0.00 0.00 82 1011.7
20260507200806 55 211 4.0 7.0 0.00 0.00 0.00 82 1011.6
20260507200306 55 219 5.0 7.0 0.00 0.00 0.00 82 1011.6
20260507195306 55 186 4.0 9.0 0.00 0.00 0.00 79 1011.6
20260507194807 55 240 5.0 10.0 0.00 0.00 0.00 81 1011.7
20260507192806 54 224 2.0 7.0 0.00 0.00 0.00 80 1012.2
20260507192307 54 182 3.0 5.0 0.00 0.00 0.00 79 1012.1
20260507191806 54 201 2.0 3.0 0.00 0.00 0.00 80 1012.0
20260507191306 54 137 2.0 5.0 0.00 0.00 0.00 81 1012.1
20260507190306 54 156 5.0 6.0 0.00 0.00 0.00 80 1012.4
20260507185806 54 212 3.0 5.0 0.00 0.00 0.00 81 1012.4
20260507185306 54 217 3.0 7.0 0.00 0.00 0.00 81 1012.3
20260507184306 54 182 5.0 6.0 0.00 0.00 0.00 80 1012.4
20260507183306 53 175 5.0 7.0 0.00 0.00 0.00 81 1012.5
20260507182806 53 168 4.0 7.0 0.00 0.00 0.00 82 1012.5
20260507182307 53 190 6.0 8.0 0.00 0.00 0.00 82 1012.4
20260507181806 53 194 7.0 8.0 0.00 0.00 0.00 84 1012.5
20260507181306 54 155 4.0 7.0 0.00 0.00 0.00 82 1012.4
20260507180806 54 195 6.0 9.0 0.00 0.00 0.00 80 1012.6
20260507180306 54 158 3.0 8.0 0.00 0.00 0.00 80 1012.7
20260507175806 55 186 6.0 8.0 0.00 0.00 0.00 79 1012.6
20260507175307 55 142 1.0 6.0 0.00 0.00 0.00 81 1012.4
20260507174806 54 194 1.0 5.0 0.00 0.00 0.00 81 1012.4
20260507173806 53 157 1.0 5.0 0.00 0.00 0.00 82 1012.9
20260507173306 53 102 2.0 5.0 0.00 0.00 0.00 84 1012.6
20260507172806 54 75 1.0 5.0 0.00 0.00 0.00 82 1013.0
20260507172308 54 151 2.0 5.0 0.00 0.00 0.00 82 1012.9
20260507171806 54 239 1.0 5.0 0.00 0.00 0.00 82 1013.0
20260507171306 53 150 2.0 5.0 0.00 0.00 0.00 84 1013.0
20260507170806 54 138 2.0 5.0 0.00 0.00 0.00 84 1013.1
20260507170307 53 95 1.0 3.0 0.00 0.00 0.00 85 1013.2
20260507165307 53 149 1.0 3.0 0.00 0.00 0.00 84 1013.5
20260507164306 53 85 2.0 5.0 0.00 0.00 0.00 85 1013.3
20260507163806 53 44 2.0 5.0 0.00 0.00 0.00 84 1013.5
20260507163306 53 8 1.0 5.0 0.00 0.00 0.00 83 1013.5
20260507162806 53 37 1.0 3.0 0.00 0.00 0.00 84 1013.5
20260507162307 53 116 1.0 5.0 0.00 0.00 0.00 86 1013.6
20260507161806 52 58 1.0 3.0 0.00 0.00 0.00 84 1013.7
20260507161306 52 84 3.0 5.0 0.00 0.00 0.00 86 1013.7
20260507160806 52 157 3.0 5.0 0.00 0.00 0.00 85 1013.9
20260507160306 51 156 1.0 2.0 0.00 0.00 0.00 86 1014.0
20260507155806 51 142 2.0 3.0 0.00 0.00 0.00 84 1014.2
20260507155306 51 141 3.0 5.0 0.00 0.00 0.00 85 1014.2
20260507154806 52 150 2.0 3.0 0.00 0.00 0.00 88 1014.2
20260507154306 52 155 3.0 3.0 0.00 0.00 0.00 87 1014.0
20260507153806 52 192 3.0 5.0 0.00 0.00 0.00 85 1014.2
20260507153306 52 84 0.0 2.0 0.00 0.00 0.00 84 1014.0
20260507152806 52 154 1.0 3.0 0.00 0.00 0.00 84 1014.2
20260507152306 53 148 3.0 3.0 0.00 0.00 0.00 84 1014.0
20260507151806 52 89 2.0 3.0 0.00 0.00 0.00 85 1013.8
20260507151306 52 57 1.0 2.0 0.00 0.00 0.00 85 1013.8
20260507150806 52 137 0.0 1.0 0.00 0.00 0.00 87 1014.0
20260507150306 52 137 0.0 3.0 0.00 0.00 0.00 87 1014.1
20260507145307 52 78 3.0 5.0 0.00 0.00 0.00 87 1013.9
20260507144806 52 104 1.0 2.0 0.00 0.00 0.00 87 1014.2
20260507144307 52 64 0.0 0.0 0.00 0.00 0.00 86 1014.2
20260507143806 52 91 1.0 3.0 0.00 0.00 0.00 86 1014.3
20260507143306 53 82 2.0 3.0 0.00 0.00 0.00 87 1014.2
20260507142806 53 77 1.0 2.0 0.00 0.00 0.00 87 1014.3
20260507142307 53 107 1.0 2.0 0.00 0.00 0.00 86 1014.4
20260507141807 53 111 1.0 3.0 0.00 0.00 0.00 87 1014.3
20260507141306 53 85 2.0 5.0 0.00 0.00 0.00 88 1014.4
20260507140806 53 91 0.0 3.0 0.00 0.00 0.00 88 1014.3
20260507140306 53 111 3.0 7.0 0.00 0.00 0.00 88 1014.5
20260507134806 53 97 3.0 5.0 0.00 0.00 0.00 89 1014.4
20260507134306 53 137 2.0 5.0 0.00 0.00 0.00 89 1014.6
20260507133806 53 171 2.0 5.0 0.00 0.00 0.00 89 1014.6
20260507132806 53 134 1.0 3.0 0.00 0.00 0.00 90 1014.5
20260507132307 53 111 2.0 5.0 0.00 0.00 0.00 90 1014.4
20260507131806 53 104 3.0 5.0 0.00 0.00 0.00 89 1014.3
20260507131306 53 131 2.0 5.0 0.00 0.00 0.00 90 1014.3
20260507130806 53 125 2.0 3.0 0.00 0.00 0.00 90 1014.2
20260507130306 53 158 0.0 2.0 0.00 0.00 0.00 90 1014.3
20260507125807 53 140 0.0 2.0 0.00 0.00 0.00 91 1014.3
20260507125307 53 123 1.0 3.0 0.00 0.00 0.00 90 1014.2
20260507124806 53 95 2.0 3.0 0.00 0.00 0.00 90 1014.2
20260507124306 53 125 1.0 2.0 0.00 0.00 0.00 92 1014.2
20260507122806 53 210 2.0 3.0 0.00 0.00 0.00 94 1014.3
20260507122307 53 240 1.0 3.0 0.00 0.00 0.00 94 1014.3
20260507121805 53 193 2.0 3.0 0.00 0.00 0.00 93 1014.1
20260507121306 53 211 2.0 3.0 0.00 0.00 0.00 94 1014.1
20260507120806 53 195 2.0 3.0 0.00 0.00 0.00 94 1013.9
20260507120306 53 206 1.0 3.0 0.00 0.00 0.00 95 1013.9
20260507115806 53 208 2.0 3.0 0.00 0.00 0.00 95 1014.0
20260507115307 53 198 2.0 3.0 0.00 0.00 0.00 94 1014.0
20260507114805 53 158 0.0 2.0 0.00 0.00 0.00 95 1014.0
20260507114306 53 223 0.0 1.0 0.00 0.00 0.00 95 1014.0
20260507113306 53 61 0.0 0.0 0.00 0.00 0.00 96 1013.8
20260507112806 52 61 0.0 0.0 0.00 0.00 0.00 96 1013.7
20260507112307 52 61 0.0 2.0 0.00 0.00 0.00 96 1013.6
20260507111806 52 317 0.0 2.0 0.00 0.00 0.00 96 1013.8
20260507111306 52 39 1.0 3.0 0.00 0.00 0.00 96 1013.7
20260507110806 52 309 1.0 3.0 0.00 0.00 0.00 95 1013.6
20260507110306 52 19 3.0 5.0 0.00 0.00 0.00 95 1013.5
20260507105805 52 247 0.0 0.0 0.00 0.00 0.00 95 1013.4
20260507105307 52 247 0.0 2.0 0.00 0.00 0.00 95 1013.4
20260507104806 52 258 2.0 2.0 0.00 0.00 0.00 95 1013.4
20260507104306 52 306 1.0 2.0 0.00 0.00 0.00 95 1013.3
20260507103806 52 206 0.0 2.0 0.00 0.00 0.00 95 1013.3
20260507103306 52 204 2.0 3.0 0.00 0.00 0.00 95 1013.4
20260507102806 52 164 2.0 3.0 0.00 0.00 0.00 95 1013.4
20260507102307 53 204 2.0 3.0 0.00 0.00 0.00 95 1013.5
20260507101806 53 176 0.0 2.0 0.00 0.00 0.00 95 1013.4
20260507101306 53 222 0.0 3.0 0.00 0.00 0.00 95 1013.4
20260507100806 53 140 2.0 3.0 0.00 0.00 0.00 95 1013.5
20260507100305 53 56 0.0 2.0 0.00 0.00 0.00 95 1013.5
20260507095806 53 23 2.0 3.0 0.00 0.00 0.00 95 1013.3
20260507095306 53 346 1.0 3.0 0.00 0.00 0.00 95 1013.2
20260507094806 53 260 2.0 3.0 0.00 0.00 0.00 95 1013.2
20260507094305 53 276 0.0 3.0 0.00 0.00 0.00 95 1013.2
20260507093306 53 241 1.0 3.0 0.00 0.00 0.00 95 1013.1
20260507092806 53 181 3.0 5.0 0.00 0.00 0.00 95 1013.0
20260507091306 53 220 2.0 3.0 0.00 0.00 0.00 95 1013.2
20260507090806 53 192 2.0 6.0 0.00 0.00 0.00 95 1013.2
20260507090306 53 207 4.0 6.0 0.00 0.00 0.00 95 1013.3
20260507085306 53 215 1.0 3.0 0.00 0.00 0.00 95 1013.1
20260507084806 53 195 3.0 5.0 0.00 0.00 0.00 95 1012.9
20260507084306 54 180 2.0 3.0 0.00 0.00 0.00 95 1012.7
20260507082806 54 219 3.0 6.0 0.00 0.00 0.00 95 1012.7
20260507082307 54 215 2.0 6.0 0.00 0.00 0.00 95 1012.8
20260507081805 55 231 2.0 3.0 0.00 0.00 0.00 95 1012.8
20260507081306 55 226 1.0 3.0 0.00 0.00 0.00 95 1012.8
20260507080806 55 244 1.0 3.0 0.00 0.00 0.00 95 1012.9
20260507080305 55 220 2.0 3.0 0.00 0.00 0.00 95 1012.7
20260507075307 55 245 3.0 5.0 0.00 0.00 0.00 95 1012.9
20260507074806 55 260 0.0 3.0 0.00 0.00 0.00 95 1012.7
20260507074305 55 209 4.0 6.0 0.00 0.00 0.00 95 1012.7
20260507073806 55 204 1.0 5.0 0.00 0.00 0.00 95 1012.5
20260507072806 55 232 3.0 5.0 0.00 0.00 0.00 95 1012.2
20260507071806 56 229 1.0 2.0 0.00 0.00 0.00 95 1011.9
20260507071306 56 32 0.0 2.0 0.00 0.00 0.00 95 1012.0
20260507070805 56 90 2.0 7.0 0.00 0.00 0.00 95 1012.1
20260507070306 56 177 4.0 8.0 0.00 0.00 0.00 95 1011.9
20260507065806 56 200 2.0 6.0 0.00 0.00 0.00 95 1012.0
20260507065306 56 181 3.0 7.0 0.00 0.00 0.00 95 1011.8
20260507064806 56 127 0.0 6.0 0.00 0.00 0.00 95 1011.9
20260507064306 57 192 3.0 6.0 0.00 0.00 0.00 95 1012.1
20260507063806 57 167 5.0 6.0 0.00 0.00 0.00 95 1012.0
20260507063305 57 217 2.0 3.0 0.00 0.00 0.00 95 1012.0
20260507062806 58 177 5.0 7.0 0.00 0.00 0.00 95 1012.1
20260507062306 59 134 4.0 9.0 0.00 0.00 0.00 95 1011.9
20260507061805 59 95 5.0 9.0 0.00 0.00 0.00 95 1012.1
20260507061306 60 96 2.0 6.0 0.00 0.00 0.00 95 1012.1
20260507060806 60 205 2.0 3.0 0.00 0.00 0.00 95 1012.0
20260507055806 61 167 3.0 6.0 0.00 0.00 0.00 95 1012.1
20260507055306 61 158 3.0 5.0 0.00 0.00 0.00 95 1012.2
20260507054806 61 67 0.0 3.0 0.00 0.00 0.00 95 1012.3
20260507054306 61 37 3.0 5.0 0.00 0.00 0.00 95 1012.3
20260507053306 62 65 1.0 6.0 0.00 0.00 0.00 95 1011.9
20260507052806 62 100 1.0 3.0 0.00 0.00 0.00 95 1011.7
20260507052306 62 34 1.0 3.0 0.00 0.00 0.00 95 1011.7
20260507051805 62 355 4.0 6.0 0.00 0.00 0.00 95 1011.7
20260507050806 62 337 3.0 5.0 0.00 0.00 0.00 95 1011.3
20260507050305 62 37 1.0 3.0 0.00 0.00 0.00 95 1010.8
20260507045806 62 210 0.0 2.0 0.00 0.00 0.00 95 1010.8
20260507045306 62 156 3.0 5.0 0.00 0.00 0.00 95 1011.0
20260507044806 62 162 2.0 5.0 0.00 0.00 0.00 95 1011.6
20260507044306 62 139 1.0 3.0 0.00 0.00 0.00 95 1011.9
20260507043806 63 259 0.0 2.0 0.00 0.00 0.00 95 1012.0
20260507043306 63 283 2.0 3.0 0.00 0.00 0.00 95 1012.0
20260507042307 63 137 2.0 5.0 0.00 0.00 0.00 95 1011.4
20260507041805 63 73 0.0 3.0 0.00 0.00 0.00 95 1011.6
20260507041306 63 55 2.0 5.0 0.00 0.00 0.00 95 1012.0
20260507040805 63 328 3.0 5.0 0.00 0.00 0.00 95 1011.9
20260507040306 63 0 3.0 3.0 0.00 0.00 0.00 95 1011.8
20260507035806 62 339 3.0 5.0 0.00 0.00 0.00 95 1011.9
20260507035306 62 267 3.0 3.0 0.00 0.00 0.00 95 1011.7
20260507034810 62 316 0.0 2.0 0.00 0.00 0.00 95 1011.7
20260507034306 62 15 2.0 3.0 0.00 0.00 0.00 95 1011.9
20260507033806 62 351 3.0 3.0 0.00 0.00 0.00 95 1012.1
20260507033305 63 106 1.0 3.0 0.00 0.00 0.00 95 1012.0
20260507032806 63 217 1.0 3.0 0.00 0.00 0.00 95 1012.2
20260507031806 62 281 3.0 5.0 0.00 0.00 0.00 95 1012.2
20260507031306 62 310 3.0 3.0 0.00 0.00 0.00 95 1011.8
20260507030806 62 225 0.0 1.0 0.00 0.00 0.00 95 1011.7
20260507030306 63 51 0.0 3.0 0.00 0.00 0.00 95 1011.5
20260507025806 62 313 3.0 5.0 0.00 0.00 0.00 95 1011.6
20260507025306 62 282 3.0 3.0 0.00 0.00 0.00 95 1011.8
20260507024805 63 315 2.0 3.0 0.00 0.00 0.00 96 1011.7
20260507024306 63 333 3.0 3.0 0.00 0.00 0.00 96 1011.6
20260507023806 63 277 2.0 3.0 0.00 0.00 0.00 95 1011.8
20260507023305 62 290 3.0 5.0 0.00 0.00 0.00 95 1011.7
20260507022806 63 285 2.0 3.0 0.00 0.00 0.00 94 1011.6
20260507022306 63 238 0.0 2.0 0.00 0.00 0.00 94 1011.4
20260507021806 63 354 2.0 2.0 0.00 0.00 0.00 92 1011.2
20260507021305 63 312 3.0 5.0 0.00 0.00 0.00 93 1011.4
20260507020806 63 314 3.0 5.0 0.00 0.00 0.00 93 1011.4
20260507020306 63 276 2.0 3.0 0.00 0.00 0.00 93 1011.3
20260507015806 63 293 2.0 3.0 0.00 0.00 0.00 93 1011.3
20260507015306 63 311 3.0 3.0 0.00 0.00 0.00 93 1011.3
20260507014306 64 354 0.0 2.0 0.00 0.00 0.00 91 1010.8
20260507013805 64 13 0.0 2.0 0.00 0.00 0.00 91 1010.7
20260507013306 64 231 0.0 0.0 0.00 0.00 0.00 91 1011.1
20260507012307 65 156 1.0 3.0 0.00 0.00 0.00 88 1011.1
20260507011805 65 262 1.0 3.0 0.00 0.00 0.00 88 1011.3
20260507011306 66 305 2.0 5.0 0.00 0.00 0.00 86 1011.3
20260507010305 66 269 4.0 7.0 0.00 0.00 0.00 84 1011.4
20260507005805 66 261 4.0 7.0 0.00 0.00 0.00 84 1011.5
20260507005306 66 254 5.0 7.0 0.00 0.00 0.00 84 1011.4
20260507004806 66 252 3.0 5.0 0.00 0.00 0.00 84 1011.3
20260507004306 66 248 2.0 6.0 0.00 0.00 0.00 85 1011.4
20260507003806 66 245 2.0 3.0 0.00 0.00 0.00 86 1011.4
20260507003305 66 239 2.0 5.0 0.00 0.00 0.00 84 1011.3
20260507002806 66 260 3.0 6.0 0.00 0.00 0.00 84 1011.3
20260507002306 67 256 4.0 8.0 0.00 0.00 0.00 83 1011.4
20260507001806 67 272 3.0 7.0 0.00 0.00 0.00 83 1011.2
20260507001306 67 254 4.0 7.0 0.00 0.00 0.00 82 1011.1
20260507000806 67 299 3.0 6.0 0.00 0.00 0.00 82 1011.0
20260507000306 68 267 3.0 7.0 0.00 0.00 0.00 81 1010.9
20260506235806 68 251 4.0 7.0 0.00 0.00 0.00 80 1010.9
20260506235307 68 227 5.0 7.0 0.00 0.00 0.00 80 1010.8
20260506233805 68 242 2.0 6.0 0.00 0.00 0.00 80 1011.0
20260506233306 68 248 3.0 7.0 0.00 0.00 0.00 81 1011.1
20260506232806 68 231 2.0 6.0 0.00 0.00 0.00 80 1011.1
20260506232306 68 199 6.0 9.0 0.00 0.00 0.00 79 1011.0
20260506231805 69 200 6.0 9.0 0.00 0.00 0.00 79 1011.0
20260506231305 69 202 5.0 7.0 0.00 0.00 0.00 78 1011.0
20260506230805 69 230 3.0 5.0 0.00 0.00 0.00 78 1010.8
20260506230306 69 209 2.0 7.0 0.00 0.00 0.00 78 1010.6
20260506225806 69 223 3.0 6.0 0.00 0.00 0.00 77 1010.6
20260506225306 69 237 5.0 8.0 0.00 0.00 0.00 77 1010.6
20260506224806 69 206 5.0 7.0 0.00 0.00 0.00 77 1010.5
20260506224305 69 205 3.0 6.0 0.00 0.00 0.00 77 1010.5
20260506223806 69 202 4.0 8.0 0.00 0.00 0.00 77 1010.7
20260506223305 69 199 6.0 8.0 0.00 0.00 0.00 76 1010.5
20260506222805 69 201 4.0 6.0 0.00 0.00 0.00 76 1010.7
20260506222306 70 221 3.0 6.0 0.00 0.00 0.00 77 1010.7
20260506221806 70 222 3.0 5.0 0.00 0.00 0.00 76 1010.7
20260506221305 70 197 3.0 6.0 0.00 0.00 0.00 76 1010.6
20260506220306 70 215 1.0 5.0 0.00 0.00 0.00 76 1010.6
20260506215805 69 210 3.0 6.0 0.00 0.00 0.00 76 1010.6
20260506215306 69 230 5.0 7.0 0.00 0.00 0.00 76 1010.6
20260506214805 70 205 6.0 9.0 0.00 0.00 0.00 76 1010.6
20260506214305 70 204 6.0 8.0 0.00 0.00 0.00 76 1010.6
20260506213805 70 200 6.0 9.0 0.00 0.00 0.00 76 1010.4
20260506213306 70 202 4.0 7.0 0.00 0.00 0.00 75 1010.4
20260506212806 70 205 6.0 9.0 0.00 0.00 0.00 75 1010.3
20260506211805 70 231 6.0 9.0 0.00 0.00 0.00 76 1010.4